Location: Celina Division
(33.3022°N, 96.7580°W)
Time: 03:40:26
(UTC+00:00)

Cosmos 1812 - Visible Passes

Search period start: 28 June 2022 00:00
Search period end: 08 July 2022 00:00
Orbit: 511 x 513 km, 82.5° (Epoch: 27 June)

Date Brightness Start Highest point End Pass type
(mag) Time Alt. Az. Time Alt. Az. Time Alt. Az.
28 Jun 5.0 07:53:44 10° NNE 07:55:56 20° ENE 07:55:56 20° ENE visible
28 Jun 4.8 09:29:40 10° NW 09:30:51 14° WNW 09:30:51 14° WNW visible
29 Jun 5.4 07:38:05 10° NNE 07:39:40 16° ENE 07:39:40 16° ENE visible
29 Jun 4.8 09:13:16 10° NW 09:14:36 17° NW 09:14:36 17° NW visible
30 Jun 5.7 07:22:36 10° NE 07:23:26 12° NE 07:23:26 12° NE visible
30 Jun 4.7 08:56:58 10° NNW 08:58:22 18° NW 08:58:22 18° NW visible
01 Jul 4.8 08:40:46 10° NNW 08:42:09 20° NW 08:42:09 20° NW visible
02 Jul 4.9 08:24:35 10° NNW 08:25:57 20° NNW 08:25:57 20° NNW visible
03 Jul 5.0 08:08:28 10° NNW 08:09:46 20° NNW 08:09:46 20° NNW visible
04 Jul 5.1 07:52:24 10° N 07:53:37 20° N 07:53:37 20° N visible
05 Jul 5.3 07:36:21 10° N 07:37:28 18° N 07:37:28 18° N visible
06 Jul 5.5 07:20:21 10° N 07:21:19 17° N 07:21:19 17° N visible
07 Jul 5.6 07:04:24 10° N 07:05:11 15° NNE 07:05:11 15° NNE visible
